Погода в Прошково

Беларусь     55°14′01″N   28°03′40″E
темп.,
°C
ветер,
м/с
пор.,
м/с
влажн.,
%
обл.,
%
осадки,
мм/ч
давл.,
гПа
погр.,
м
14 мая, пт
пт1400:00+8юв5994100 0.7 1008397
03:00+8юв5129559 1.3 1008474
06:00+9юв51197100 0.6 1007567
09:00+10юв61292100 1.8 1007735
12:00+14ююв81381100 0.1 10071201
15:00+15ююв81173100 0.7 10071085
18:00+14юв378552 0.3 1006580
21:00+12вюв33917 0.4 100642
15 мая, сб
сб1500:00+11юв35936 0.1 100668
03:00+10ююв349463 0.1 100659
06:00+10юв239481 0.0 100643
09:00+15ю238176 0.7 1006332
12:00+19ююз33667 0.1 10061041
15:00+19зюз226494 1.0 1005899
18:00+17зюз457899 1.0 1005345
21:00+14ссз229368 1.8 100638
16 мая, вс
вс1600:00+12зсз3393100 0.3 100638
03:00+10зсз349444 0.3 100762
06:00+10з349623 0.0 100990
09:00+15зсз22836 0.0 1009395
12:00+18зюз2270100 1.1 1009889
15:00+20юз23575 2.6 10091533
18:00+20юз33595 0.0 10081215
21:00+15ю33853 0.7 100933
17 мая, пн
пн1700:00+13юв3491100 0.0 101059
03:00+12юв499258 0.0 1009160
06:00+12юв51392100 0.1 1008290
09:00+16ююв61380100 0.1 1008638
12:00+17ююв61177100 0.0 1008813
15:00+16юв5987100 1.2 1007479
18:00+14ююв2495100 2.1 1006148
21:00+13всв2297100 3.1 100541
18 мая, вт
вт1800:00+13з3598100 0.1 1005220
03:00+10з3698100 0.1 1005124
06:00+10з3699100 0.0 1006168
09:00+13з45795 0.0 1007481
12:00+17з3362100 0.0 1008980
15:00+18зюз2359100 0.0 10081388
18:00+17зюз3368100 0.3 1008979
21:00+13зсз2290100 1.4 100934